Location: *
(35.2348°S, 91.3916°E)
Time: 23:02:26
(UTC+00:00)

ATLAS 5 CENTAUR R/B - Pass Details

Date: 23 October 2019
Orbit: 557 x 1102 km, 63.4° (Epoch: 07 November)

Event Time Altitude Azimuth Distance (km) Brightness Sun altitude
Exits shadow 21:59:32 16° 289° (WNW) 2,492 4.0 -12.7°
Maximum altitude 22:04:26 36° 231° (SW) 1,610 3.4 -11.8°
Drops below altitude 10° 22:10:29 10° 165° (SSE) 2,757 5.4 -10.7°
Sets 22:13:12 0° 156° (SSE) 3,631 6.3 -10.2°
